Location: Bannatyne
(13.0833°N, 59.5333°W)
Time: 14:42:42
(UTC+00:00)

Transit 4A - Pass Details

Date: 21 January 2021
Orbit: 866 x 978 km, 66.8° (Epoch: 05 March)

Event Time Altitude Azimuth Distance (km) Brightness Sun altitude
Rises 22:13:28 0° 196° (SSW) 3,613 11.5 -5.3°
Reaches altitude 10° 22:16:00 10° 194° (SSW) 2,682 10.8 -5.8°
Maximum altitude 22:22:16 75° 109° (ESE) 1,002 8.0 -7.3°
Drops below altitude 10° 22:28:38 10° 25° (NNE) 2,720 9.9 -8.8°
Sets 22:31:12 0° 24° (NNE) 3,668 10.6 -9.3°
